Satellite-Ground Cal/Val Region Overpasses Predictions

Prediction of Satellite NPP Overpassing Cal/Val Region: PacNW

Region Location: (Latitude: 10.00, Longitude: 139.50) to (Latitude: 22.70, Longitude: 165.60).

Table of predicted overpasses for the next 14.0 days since TLE Epoch: 5/25/2019
Interval Starting Time Starting Location Ending Time Ending Location
1 05/26/2019 02:14:40 ( 12.66, 165.60) 05/26/2019 02:17:31 ( 22.70, 163.19)
2 05/26/2019 03:55:25 ( 10.02, 140.83) 05/26/2019 03:57:02 ( 15.72, 139.51)
3 05/26/2019 14:45:49 ( 22.67, 163.44) 05/26/2019 14:49:24 ( 10.05, 160.43)
4 05/27/2019 03:36:24 ( 10.01, 145.59) 05/27/2019 03:40:00 ( 22.69, 142.57)
5 05/27/2019 14:29:52 ( 11.81, 165.59) 05/27/2019 14:30:22 ( 10.05, 165.19)
6 05/27/2019 16:08:17 ( 22.67, 142.82) 05/27/2019 16:11:52 ( 10.05, 139.81)
7 05/28/2019 03:17:22 ( 10.01, 150.34) 05/28/2019 03:20:58 ( 22.69, 147.33)
8 05/28/2019 15:49:16 ( 22.67, 147.58) 05/28/2019 15:52:51 ( 10.05, 144.57)
9 05/29/2019 02:58:21 ( 10.01, 155.10) 05/29/2019 03:01:57 ( 22.69, 152.08)
10 05/29/2019 15:30:14 ( 22.67, 152.33) 05/29/2019 15:33:49 ( 10.05, 149.33)
11 05/30/2019 02:39:19 ( 10.00, 159.86) 05/30/2019 02:42:55 ( 22.68, 156.84)
12 05/30/2019 15:11:13 ( 22.68, 157.09) 05/30/2019 15:14:48 ( 10.06, 154.09)
13 05/31/2019 02:20:19 ( 10.06, 164.60) 05/31/2019 02:23:54 ( 22.68, 161.60)
14 05/31/2019 14:52:12 ( 22.68, 161.85) 05/31/2019 14:55:48 ( 10.00, 158.83)
15 06/01/2019 03:42:46 ( 10.00, 144.00) 06/01/2019 03:46:22 ( 22.68, 140.98)
16 06/01/2019 14:34:20 ( 18.58, 165.60) 06/01/2019 14:36:46 ( 10.01, 163.59)
17 06/01/2019 16:14:40 ( 22.68, 141.23) 06/01/2019 16:16:41 ( 15.58, 139.51)
18 06/02/2019 03:23:46 ( 10.06, 148.74) 06/02/2019 03:27:21 ( 22.68, 145.74)
19 06/02/2019 15:55:39 ( 22.68, 145.99) 06/02/2019 15:59:15 ( 10.00, 142.97)
20 06/03/2019 03:04:44 ( 10.06, 153.50) 06/03/2019 03:08:19 ( 22.68, 150.49)
21 06/03/2019 15:36:37 ( 22.69, 150.74) 06/03/2019 15:40:13 ( 10.01, 147.73)
22 06/04/2019 02:45:43 ( 10.05, 158.25) 06/04/2019 02:49:18 ( 22.68, 155.25)
23 06/04/2019 15:17:36 ( 22.69, 155.50) 06/04/2019 15:21:12 ( 10.01, 152.48)
24 06/05/2019 02:26:41 ( 10.05, 163.01) 06/05/2019 02:30:16 ( 22.68, 160.01)
25 06/05/2019 14:58:34 ( 22.69, 160.26) 06/05/2019 15:02:10 ( 10.01, 157.24)
26 06/06/2019 02:10:18 ( 19.33, 165.59) 06/06/2019 02:11:15 ( 22.67, 164.76)
27 06/06/2019 03:49:10 ( 10.06, 142.39) 06/06/2019 03:52:37 ( 22.21, 139.51)
28 06/06/2019 14:39:33 ( 22.69, 165.01) 06/06/2019 14:43:09 ( 10.01, 162.00)
29 06/06/2019 16:21:03 ( 22.69, 139.64) 06/06/2019 16:21:12 ( 22.16, 139.51)
30 06/07/2019 03:30:09 ( 10.06, 147.15) 06/07/2019 03:33:44 ( 22.68, 144.14)
31 06/07/2019 16:02:01 ( 22.69, 144.40) 06/07/2019 16:05:37 ( 10.01, 141.38)
32 06/08/2019 03:11:07 ( 10.06, 151.91) 06/08/2019 03:14:42 ( 22.68, 148.90)


NCC Satellite Cal/Val Overpasses Prediction Service
